(173) Ino
ephemeris date magn radius delta ra dec elong phase
Opposition14 May 202612.63.149 AU2.183 AU15h44m+01°24'159.4°6.5°
Today12 Jun 202612.83.109 AU2.246 AU15h22m+02°01'142.0°11.6°
(173) Ino - 2026-06-12
astro.vanbuitenen.nl


 
-1 year
-1 month
-1 day
Now
+1 day
+1 month
+1 year

The interactive orbit chart above shows the body's path through the solar system and its position at the given date. Green and blue lines are shown perpendicular to the ecliptic plane: Green if the path is above the ecliptic plane, blue if it is below. (Left-click and drag to rotate the view; Right-click and drag to move the view; Use scroll wheel to zoom in our out.)

The orbital elements of Ino are:

            e (Eccentricity)                : 0.2093396
            a (Semimajor axis)              : 2.7421540
            i (Inclination)                 : 14.19456
            Ω (Longitude of ascending node) : 148.11879
            ω (Argument of perihelion)      : 228.53494
            M (Mean anomaly)                : 238.83177
            Epoch                           : 2026 Jun 09

            L (Longitude of perihelion)     : 195.77065
            B (Latitude of perihelion)      : -10.58852
            P (Orbital period in years)     : 4.54            
        

The light curve chart below shows the estimated development of the minor planet's magnitude.


The all-sky chart below shows the path of the minor planet over the same period as the light curve. The current position is marked yellow.





The following chart shows the path of the minor planet in the next few days. The field of view is optimized for (~10x50) binoculars and finderscopes.




Ephemerides:
Date       Time       RA (2000)    DEC (2000)    delta   radius  elong  phase   PA    magn
2026-06-12 00:00 UT   15 22 23.8   +02 01 05     2.246    3.109  142.0   11.6   133   12.8 
2026-06-12 12:13 UT   15 22 04.8   +02 00 26     2.248    3.108  141.5   11.7   133   12.8 
2026-06-13 00:00 UT   15 21 46.6   +01 59 46     2.251    3.108  141.1   11.8   132   12.9 
2026-06-14 00:00 UT   15 21 10.4   +01 58 18     2.257    3.106  140.2   12.1   131   12.9 
2026-06-15 00:00 UT   15 20 35.2   +01 56 39     2.263    3.105  139.3   12.3   130   12.9 
2026-06-16 00:00 UT   15 20 01.0   +01 54 50     2.270    3.103  138.4   12.6   129   12.9 
2026-06-17 00:00 UT   15 19 27.9   +01 52 51     2.276    3.102  137.4   12.8   128   12.9 
2026-06-18 00:00 UT   15 18 55.8   +01 50 42     2.283    3.100  136.5   13.0   128   12.9 
2026-06-19 00:00 UT   15 18 24.9   +01 48 23     2.290    3.099  135.6   13.3   127   12.9 
2026-06-20 00:00 UT   15 17 55.1   +01 45 55     2.297    3.097  134.7   13.5   126   13.0 
2026-06-21 00:00 UT   15 17 26.4   +01 43 17     2.304    3.096  133.8   13.7   125   13.0 
2026-06-22 00:00 UT   15 16 58.9   +01 40 30     2.312    3.094  132.9   13.9   125   13.0 
2026-06-23 00:00 UT   15 16 32.6   +01 37 33     2.320    3.093  131.9   14.1   124   13.0 
2026-06-24 00:00 UT   15 16 07.4   +01 34 28     2.327    3.091  131.0   14.4   123   13.0 
2026-06-25 00:00 UT   15 15 43.5   +01 31 13     2.335    3.090  130.1   14.6   123   13.0 
2026-06-26 00:00 UT   15 15 20.8   +01 27 50     2.344    3.088  129.2   14.8   122   13.0 
2026-06-27 00:00 UT   15 14 59.3   +01 24 19     2.352    3.086  128.3   15.0   122   13.0 
2026-06-28 00:00 UT   15 14 39.0   +01 20 39     2.360    3.085  127.4   15.2   121   13.1 
2026-06-29 00:00 UT   15 14 19.9   +01 16 51     2.369    3.083  126.5   15.4   120   13.1 
2026-06-30 00:00 UT   15 14 02.1   +01 12 54     2.378    3.082  125.6   15.6   120   13.1 
2026-07-01 00:00 UT   15 13 45.6   +01 08 50     2.387    3.080  124.6   15.8   119   13.1 
2026-07-02 00:00 UT   15 13 30.3   +01 04 38     2.396    3.079  123.7   15.9   119   13.1 
2026-07-03 00:00 UT   15 13 16.2   +01 00 19     2.405    3.077  122.8   16.1   118   13.1 
2026-07-04 00:00 UT   15 13 03.5   +00 55 52     2.414    3.076  121.9   16.3   118   13.1 
2026-07-05 00:00 UT   15 12 51.9   +00 51 18     2.424    3.074  121.1   16.5   118   13.2 
2026-07-06 00:00 UT   15 12 41.7   +00 46 37     2.433    3.072  120.2   16.6   117   13.2 
2026-07-07 00:00 UT   15 12 32.7   +00 41 49     2.443    3.071  119.3   16.8   117   13.2 
2026-07-08 00:00 UT   15 12 25.0   +00 36 54     2.453    3.069  118.4   16.9   116   13.2 
2026-07-09 00:00 UT   15 12 18.6   +00 31 52     2.463    3.068  117.5   17.1   116   13.2 
2026-07-10 00:00 UT   15 12 13.4   +00 26 44     2.473    3.066  116.6   17.2   115   13.2 
2026-07-11 00:00 UT   15 12 09.5   +00 21 29     2.483    3.064  115.7   17.4   115   13.2 
2026-07-12 00:00 UT   15 12 06.9   +00 16 09     2.493    3.063  114.9   17.5   115   13.2 


    Terminology:
            
    delta:  distance between minor planet and earth in AU
    radius: distance between minor planet and sun in AU
    magn:   magnitude (brightness) estimate    
    ra:     right ascension in hours (24h = 360deg)
    dec:    declination in degrees
    elong:  elongation in degrees (angle sun-earth-minor planet)    
    phase:  phase angle in degrees (angle sun-minor planet-earth)        
    AU:     Astronomical Unit (mean distance between earth and sun: 149597870.7 km
    

Orbital elements provided by the MPC (Minor Planet Center).
Calculations by a modified version of AAPlus, a C# implementation of the AA+ project by PJ Naughter from the algorithms presented in the book "Astronomical Algorithms" by Jean Meeus.
NGC2000 dso catalog and star labels from VizieR as provided by the Strasbourg astronomical Data Center.
Tycho2 catalog from the ESO archive.